GEFSNGP_500_meanwind_024.txt.gz
Wind_Speed
19 19 20 22 24 27 31 34 37 36 36 35 34 35 36 35 33 31 29 30 32 34 35 36 37 38 39 39 39 39 39 38 38 37 37 36 36 36 37 37 37 37 37 37
19 20 21 22 22 24 26 29 31 32 31 32 34 33 33 34 34 32 30 29 30 32 33 34 35 37 38 38 38 38 38 38 37 36 36 36 37 37 38 39 40 40 40 40
19 20 20 19 21 22 23 23 25 26 25 26 28 29 29 29 29 28 27 27 28 30 32 33 34 34 36 37 37 37 38 37 37 37 36 37 37 38 39 40 41 41 42 43
18 19 19 22 20 20 20 20 19 19 19 19 21 22 23 23 24 24 24 25 27 28 29 30 32 32 33 35 35 35 36 36 35 35 35 36 37 38 39 40 41 41 42 43
17 17 19 21 20 18 17 17 16 16 16 16 17 18 20 21 21 22 22 23 24 24 25 26 28 29 30 31 31 32 32 32 32 32 33 34 34 35 36 37 38 39 39 40
17 17 18 19 18 18 17 16 16 16 16 16 17 18 19 19 20 21 22 21 21 21 22 22 23 25 26 26 26 27 27 27 28 28 29 29 30 32 33 34 35 36 36 37
17 17 17 18 18 17 17 17 17 17 16 17 17 17 18 18 18 19 20 19 19 19 19 19 19 19 20 21 22 22 22 22 22 24 25 27 28 30 31 32 32 32 33 33
19 18 19 17 17 16 16 16 16 16 16 16 15 15 15 16 16 17 16 16 16 16 17 17 17 17 18 18 18 18 18 19 21 23 24 26 27 28 29 29 29 29 29 29
21 21 20 18 18 17 16 15 14 14 14 14 14 13 13 13 13 13 13 12 12 13 13 14 14 15 15 15 15 16 17 19 21 22 23 24 24 25 25 26 26 27 27 27
22 21 22 21 19 18 17 16 14 13 12 12 12 12 11 11 11 10 9 9 9 9 9 10 11 12 13 14 15 16 17 18 19 20 21 22 23 24 25 26 27 28 29 29
23 22 23 22 21 20 19 17 16 15 14 13 12 12 11 11 10 9 8 7 6 6 7 7 8 9 11 12 13 14 15 17 18 20 21 22 24 25 26 27 28 29 30 31
27 25 25 23 23 22 20 19 18 18 17 16 15 13 12 11 10 9 8 7 7 6 6 6 7 8 9 11 12 14 15 16 18 19 20 22 24 25 27 28 29 30 30 31
26 26 26 25 25 24 23 22 21 20 19 19 18 17 15 14 12 11 10 9 8 8 7 7 8 8 9 11 12 13 14 16 17 18 20 21 23 25 26 28 29 30 30 30
23 23 24 25 26 26 26 25 25 24 23 22 21 20 19 18 16 15 13 12 11 10 10 10 10 10 11 12 13 14 15 16 17 19 20 21 23 25 26 27 27 27 27 27
21 22 22 23 24 25 26 27 27 27 27 26 24 23 22 21 20 19 17 16 15 14 14 13 13 13 14 14 15 16 16 17 18 19 20 21 23 25 26 27 27 27 25 24
22 22 22 23 24 25 26 26 27 27 28 28 28 27 26 25 23 22 21 20 19 18 18 17 17 17 17 17 18 18 18 18 19 19 20 20 22 23 25 25 25 26 27 27
25 24 24 24 24 25 26 27 27 28 29 30 30 30 29 28 27 25 24 23 22 20 20 19 19 18 19 19 19 19 19 19 19 19 19 20 21 22 23 23 24 25 26 27
27 27 27 27 28 28 28 29 29 30 30 30 31 30 30 30 30 29 27 26 24 22 22 21 20 20 19 19 19 19 19 18 18 19 19 19 20 21 22 23 23 25 27 28
29 29 30 30 30 31 31 31 31 31 31 31 31 30 30 30 30 30 29 28 26 24 23 23 21 20 20 20 20 20 19 19 18 18 19 19 19 20 22 23 23 25 27 30
32 32 33 33 34 34 34 33 32 32 32 32 32 31 29 29 29 29 29 28 26 25 24 23 22 21 21 21 21 20 20 20 19 18 18 18 19 19 21 22 24 25 27 29
35 34 35 35 35 36 36 35 34 33 32 32 32 31 30 28 27 26 26 26 25 25 25 23 22 21 21 21 21 21 20 20 19 19 19 19 20 20 21 22 24 27 29 30
39 38 38 38 38 38 37 36 35 34 33 32 32 31 29 27 26 24 22 22 24 25 25 23 22 22 22 22 21 21 21 20 19 19 20 21 21 22 23 24 26 28 30 32
44 44 43 42 41 40 39 37 36 34 33 32 31 30 28 26 25 23 21 20 21 23 24 24 23 22 23 23 22 21 21 21 20 20 21 22 22 23 24 26 28 30 31 33
49 49 47 45 44 42 40 37 36 34 33 32 31 30 29 28 26 24 22 21 20 21 22 23 23 23 24 23 22 22 21 21 21 21 22 22 23 24 25 27 29 31 33 34
50 48 46 44 42 40 38 37 35 34 33 32 31 30 30 29 27 26 24 23 22 21 21 21 22 23 23 23 23 22 22 22 22 22 22 23 24 25 26 28 30 31 33 35
46 43 41 40 38 37 36 35 34 32 31 30 29 29 30 30 29 28 26 24 23 22 21 21 20 20 21 22 23 23 23 23 23 23 23 24 25 26 27 28 30 33 35 37
40 37 36 35 34 33 33 33 32 31 30 30 29 29 30 31 30 30 28 28 26 24 22 21 20 19 20 21 23 24 25 25 24 23 23 25 26 27 28 30 31 34 36 37

GEFSNGP_500_meanwind_030.txt.gz
Wind_Speed
21 23 24 24 24 26 27 27 27 26 26 26 28 28 26 25 23 23 21 22 22 24 24 25 26 28 29 30 31 33 34 34 34 34 34 34 34 33 33 33 34 34 35 36
24 25 25 24 25 26 25 25 25 25 24 25 25 24 21 19 17 16 18 18 18 19 21 22 24 26 28 30 31 32 33 33 34 34 33 33 33 33 33 33 33 34 35 35
28 28 27 26 25 25 24 23 23 23 22 21 21 21 19 17 15 14 14 15 17 19 21 23 25 27 28 29 30 31 31 32 32 32 32 32 32 32 33 33 33 33 34 34
31 30 29 27 25 24 23 22 21 20 20 19 19 19 19 17 16 15 15 15 17 19 21 23 24 26 27 28 28 28 29 29 30 30 32 32 32 31 31 32 31 31 31 32
32 32 30 27 26 23 22 20 20 20 19 18 17 17 18 17 16 16 15 15 16 17 18 20 21 23 24 24 24 25 25 25 26 27 27 27 27 26 26 26 26 27 27 28
29 31 30 26 25 22 22 20 20 19 18 17 16 16 17 17 17 16 16 16 16 16 16 17 17 18 19 20 20 20 21 21 22 22 22 22 21 20 20 21 22 23 25 27
27 30 31 28 27 25 23 22 21 20 19 18 17 17 17 17 17 16 15 15 15 14 14 14 14 15 15 16 16 16 17 17 16 16 16 15 15 16 17 19 20 22 24 25
26 29 29 30 31 28 26 23 22 21 20 19 18 17 17 17 17 16 15 14 12 11 11 11 11 12 12 12 12 12 12 12 12 12 12 12 13 15 16 18 19 21 22 24
26 27 28 31 31 30 28 25 23 23 22 20 18 17 17 17 16 15 14 13 11 10 10 9 9 9 9 10 10 10 10 10 10 11 11 11 13 14 15 16 18 19 21 23
25 25 28 29 31 31 29 26 25 24 23 21 20 19 18 17 16 15 14 13 11 10 9 7 6 6 6 7 8 8 9 9 9 9 10 11 12 13 14 15 17 19 22 24
23 22 24 25 27 29 29 28 26 26 25 24 22 20 20 19 18 17 15 14 12 11 9 8 7 5 5 5 6 7 8 8 9 9 9 10 11 13 14 16 18 20 23 25
22 22 23 22 23 26 27 27 26 26 25 25 24 22 21 21 20 19 18 16 15 13 12 10 9 8 7 7 7 7 8 9 9 10 10 11 12 13 15 17 19 21 23 25
23 22 22 21 22 23 24 25 25 24 24 24 24 23 21 21 21 20 20 19 17 16 15 14 12 12 11 10 10 10 10 10 11 11 12 13 14 15 15 17 19 21 22 23
25 24 23 22 22 21 22 23 24 23 23 23 23 22 22 22 22 22 22 21 20 19 19 18 17 16 15 14 13 13 13 13 13 14 14 15 15 15 16 16 18 20 21 21
27 26 24 23 22 21 21 22 23 23 23 23 22 22 22 22 23 23 23 23 23 22 22 21 20 20 19 18 17 17 16 16 16 16 16 16 16 16 16 16 17 18 19 19
28 27 26 24 23 22 22 23 23 24 24 24 23 23 22 22 23 24 25 25 24 24 23 23 23 23 22 21 21 20 19 19 18 18 17 17 17 16 16 16 16 17 17 18
29 28 27 26 25 24 23 23 24 24 24 24 24 25 24 23 23 23 24 25 25 25 25 25 25 25 24 23 23 22 21 20 20 19 18 18 17 16 16 16 16 16 17 18
30 30 29 28 27 26 26 25 25 25 25 25 25 25 25 25 23 24 25 26 25 24 25 26 27 27 26 25 25 24 23 22 21 20 19 18 18 18 17 17 17 17 18 19
32 31 32 31 31 30 28 26 25 25 26 27 27 27 26 25 25 26 27 27 26 25 26 27 27 28 28 27 26 25 24 23 22 21 20 19 19 19 19 19 19 18 19 21
33 33 34 34 34 32 31 29 28 27 27 28 29 29 29 27 27 28 28 28 27 27 27 28 27 26 27 28 27 26 25 24 23 23 22 21 20 20 20 20 20 20 21 22
37 37 38 38 37 36 35 34 33 31 31 31 32 33 33 32 31 31 31 30 28 29 29 29 27 26 26 27 28 27 26 25 24 23 22 22 21 21 21 21 21 21 22 23
42 43 43 41 42 42 41 39 38 37 36 35 35 36 36 35 34 33 32 32 31 32 31 29 27 26 26 26 27 27 26 25 24 24 23 22 22 21 22 22 22 23 23 24
51 50 49 48 47 47 45 44 44 42 40 38 38 38 39 37 36 35 32 31 32 32 31 29 27 26 25 25 24 25 25 25 25 24 23 23 22 22 22 23 23 24 24 25
60 59 58 57 55 53 51 48 46 44 43 41 40 39 38 38 36 35 33 32 33 33 32 30 28 25 24 23 23 24 24 24 24 24 24 23 23 23 23 24 24 25 25 26
66 65 64 63 60 56 54 51 47 45 43 41 39 38 37 36 35 34 33 33 33 33 32 30 28 26 24 22 21 22 23 23 24 24 24 23 23 22 23 24 25 26 26 27
63 63 62 60 58 55 52 48 44 41 39 37 36 35 35 34 33 32 32 32 33 33 32 30 28 26 24 21 20 21 21 22 22 22 22 22 22 23 23 24 25 25 26 27
51 52 52 51 49 46 44 40 37 35 34 33 32 31 31 31 31 31 31 31 31 31 31 31 30 27 24 22 21 21 21 21 21 21 21 21 21 22 24 25 25 26 26 27

GEFSNGP_500_meanwind_036.txt.gz
Wind_Speed
24 26 29 28 27 29 30 30 30 28 28 28 29 29 29 29 30 30 28 27 26 24 22 22 22 23 23 23 23 23 25 27 28 28 29 31 31 31 31 31 31 31 32 33
25 26 30 28 27 30 31 31 31 30 28 28 28 28 28 27 27 27 26 25 23 22 20 19 20 20 21 22 22 22 23 26 28 30 30 29 28 29 29 30 30 31 32 32
25 26 28 26 26 29 30 29 29 29 28 28 27 27 26 25 25 25 24 23 22 22 21 19 19 19 20 22 22 22 24 26 27 27 27 28 27 27 28 28 29 30 30 30
26 26 26 25 26 28 29 27 28 28 28 28 27 26 26 25 24 23 23 22 21 21 20 19 18 19 19 20 20 21 23 25 25 25 25 25 26 26 27 27 27 28 29 29
26 27 25 21 24 27 29 25 26 28 28 29 28 27 26 25 24 23 22 21 20 19 19 18 17 17 17 17 17 17 18 20 21 22 22 23 23 23 23 24 24 25 25 24
27 29 27 23 24 26 27 23 24 27 28 29 29 28 27 25 24 23 22 20 19 18 17 16 15 15 14 14 14 14 14 15 16 17 18 18 18 19 19 20 20 19 18 18
28 29 27 27 28 28 28 25 26 27 28 29 28 29 28 26 24 22 21 20 19 17 16 14 14 13 12 11 11 11 11 11 12 13 13 13 13 13 14 14 13 13 14 15
29 29 28 29 30 29 28 28 27 27 28 28 28 28 28 26 23 22 20 19 19 18 16 14 13 12 11 10 9 8 8 8 9 10 10 11 11 11 11 10 11 11 13 14
31 30 29 30 31 31 31 30 29 28 28 28 27 27 27 26 25 22 21 19 18 17 16 14 13 12 11 10 9 8 8 8 8 9 9 10 10 10 9 10 11 11 12 13
33 31 31 32 32 32 33 32 31 30 30 30 29 28 27 27 25 24 22 21 19 18 17 15 14 12 11 10 9 8 8 7 8 8 9 9 10 10 11 11 11 11 12 13
34 32 32 32 33 34 34 33 32 31 30 29 28 27 27 27 27 26 24 22 21 19 18 17 15 13 12 11 10 9 8 8 8 9 10 10 11 11 11 11 11 12 12 13
38 36 36 34 34 35 35 34 33 32 30 29 28 27 27 28 28 28 25 24 22 21 20 19 17 15 14 13 12 11 10 10 10 10 11 11 12 12 12 12 13 13 13 14
40 40 38 36 35 36 36 36 35 34 32 29 27 27 27 26 27 26 25 24 23 23 21 20 19 18 17 15 14 14 13 13 12 13 13 13 13 14 14 14 14 14 14 14
44 43 41 38 37 37 37 37 36 35 32 30 28 27 26 25 26 27 26 25 23 23 23 22 21 20 19 18 18 17 16 16 15 15 15 15 15 15 15 15 15 15 15 15
45 45 43 41 38 37 37 37 37 36 34 31 30 29 26 26 27 28 27 27 25 24 23 23 23 22 21 21 20 20 19 19 19 18 17 17 17 17 17 17 17 16 16 15
45 44 43 42 40 38 38 38 38 37 36 34 32 31 29 28 27 27 27 27 27 26 25 24 24 23 23 23 23 22 22 22 21 21 20 20 19 19 19 19 18 17 17 16
46 45 44 43 42 40 40 39 40 39 38 37 36 34 31 30 29 28 28 28 28 26 26 25 24 24 23 23 23 23 23 23 23 23 22 22 21 21 20 20 19 19 18 17
49 49 47 46 45 44 43 42 41 42 42 41 38 36 35 33 31 30 29 29 28 26 25 25 25 25 23 22 22 22 23 24 24 24 24 23 23 22 21 21 20 20 19 19
51 53 51 50 50 49 48 47 45 44 45 44 42 40 38 37 36 33 32 31 29 26 26 27 27 26 24 24 23 22 22 23 24 25 26 25 24 23 22 22 22 21 20 20
57 57 58 58 57 56 54 52 49 47 46 46 44 43 42 40 39 36 34 32 29 27 28 30 30 28 26 25 24 23 24 24 24 25 26 26 26 25 24 23 23 22 21 21
65 66 67 68 67 65 63 61 57 53 52 49 45 43 43 42 42 39 36 33 30 30 30 30 31 30 28 27 26 25 24 24 24 25 25 26 26 26 25 24 23 23 22 22
68 69 69 70 70 70 69 68 66 62 59 57 53 49 47 44 44 41 38 35 33 33 32 31 31 31 30 31 30 28 26 25 25 25 25 25 26 26 25 24 24 24 23 23
63 62 62 62 63 63 64 65 67 67 66 63 59 55 51 46 44 43 40 38 37 35 34 33 32 32 32 33 32 30 28 27 26 25 24 23 24 24 24 24 24 24 23 23
56 54 53 52 52 52 53 54 57 60 62 62 60 56 52 47 45 42 40 38 37 36 35 34 34 34 34 34 33 31 29 27 26 25 24 23 23 23 23 23 23 23 22 22
52 49 48 47 46 45 44 45 46 47 49 52 51 50 50 48 44 42 40 38 37 37 36 34 34 35 36 35 34 32 30 28 27 25 24 23 22 22 22 21 21 21 21 21
47 44 42 39 37 36 34 32 31 31 32 34 35 36 39 42 42 40 38 37 36 36 35 35 34 35 35 35 33 32 30 29 27 25 23 22 22 21 20 20 20 20 20 20
37 35 33 31 29 27 25 23 21 21 21 21 23 26 29 32 34 35 35 34 33 33 33 33 34 34 34 33 33 31 30 29 27 24 23 22 21 20 19 19 19 19 19 20

GEFSNGP_500_meanwind_042.txt.gz
Wind_Speed
15 17 19 20 22 25 27 28 30 29 30 29 32 33 33 32 32 31 30 29 28 27 27 27 27 28 28 28 27 26 25 24 24 23 22 23 24 26 27 28 29 29 28 28
16 18 20 20 21 24 26 27 29 29 28 29 31 31 31 31 30 30 30 29 28 27 26 26 26 26 27 27 25 24 23 22 23 22 20 19 19 20 20 21 22 23 24 24
18 20 22 21 23 24 26 27 29 30 29 29 30 30 31 31 30 29 29 28 28 27 26 25 25 25 25 25 23 22 21 20 21 20 17 15 15 15 16 17 19 19 19 19
20 21 22 23 26 26 27 27 29 30 30 30 31 31 31 31 30 29 28 28 27 26 25 24 24 23 23 22 21 19 18 18 18 17 16 14 14 14 14 13 13 13 14 15
24 25 24 25 27 28 29 27 30 31 32 32 33 33 33 33 31 31 30 28 27 26 25 24 23 22 22 20 19 18 17 16 15 14 14 14 12 11 10 11 11 11 12 13
29 29 29 30 31 30 31 30 32 32 33 34 35 34 33 34 33 32 31 29 28 27 25 24 23 21 20 19 17 16 15 14 13 12 12 12 11 10 9 9 10 10 11 11
31 32 33 33 33 33 34 35 35 34 35 36 36 35 34 35 33 32 31 29 29 28 26 24 23 21 20 18 16 15 14 13 12 11 10 10 10 10 9 9 9 9 10 10
33 33 35 35 35 36 37 37 37 38 38 38 38 37 36 36 35 34 32 30 29 28 27 25 23 22 20 18 16 14 13 12 11 10 10 10 9 9 9 9 9 9 9 9
36 36 37 37 38 40 41 40 40 40 40 40 39 38 37 36 35 34 33 31 29 28 27 25 24 22 21 19 17 15 13 12 12 11 11 10 9 9 9 9 9 9 9 8
38 39 40 40 41 42 42 42 42 42 42 41 40 39 37 36 35 34 33 32 29 28 26 26 25 23 22 20 18 16 15 13 13 12 12 12 12 11 11 11 10 10 10 9
42 43 44 44 44 45 45 44 44 43 43 42 41 39 38 36 35 34 33 32 31 29 28 27 26 25 24 22 20 19 17 16 14 13 13 12 12 12 12 12 11 11 11 10
46 47 48 49 50 50 49 48 47 46 44 42 41 39 38 36 35 34 33 32 31 29 28 28 27 26 25 23 21 20 19 18 17 15 15 14 14 13 13 12 12 12 12 12
49 51 52 53 54 53 52 51 49 48 46 44 42 39 38 37 36 34 33 32 31 30 29 28 27 26 25 24 23 22 21 20 19 18 17 17 16 16 15 14 14 13 13 13
52 53 53 53 54 53 52 51 50 49 48 46 44 42 41 40 39 37 35 34 33 32 31 29 27 27 26 26 25 24 23 22 22 21 20 19 19 18 18 17 16 16 16 15
53 54 54 54 54 54 54 53 53 52 51 51 49 47 45 43 42 40 39 37 35 34 32 31 28 27 26 26 25 25 24 24 23 23 22 22 21 21 20 20 19 18 18 17
55 55 56 57 57 58 59 59 59 57 55 55 55 53 50 46 44 43 41 40 38 36 34 33 31 29 28 27 26 25 25 24 24 24 24 23 23 23 23 23 22 21 21 20
60 60 61 62 62 63 64 65 64 62 60 58 57 57 56 52 47 45 43 41 40 38 35 34 32 30 29 28 27 27 26 26 25 24 24 25 25 25 25 25 25 24 24 23
63 64 65 66 66 67 66 66 66 66 65 62 60 58 57 55 52 49 45 42 41 39 37 36 35 33 30 29 28 28 28 27 26 25 24 24 24 25 26 26 26 26 26 25
65 66 66 66 65 65 64 62 60 58 58 57 55 54 53 53 52 51 47 44 43 40 40 39 38 35 32 30 29 28 27 26 25 24 23 23 23 24 25 25 26 27 27 26
63 63 63 62 61 60 58 57 55 53 50 49 48 48 48 47 47 48 47 45 43 41 42 42 40 37 34 31 29 28 27 26 25 24 23 22 22 22 24 25 26 27 27 27
60 58 56 55 54 52 51 50 49 47 44 43 43 42 40 39 40 42 43 42 42 43 43 43 41 38 35 33 31 29 27 26 25 24 24 22 22 22 22 23 24 26 27 27
54 52 51 50 48 46 45 44 42 40 38 37 37 37 37 35 35 37 39 40 40 41 41 43 42 41 39 36 33 31 29 27 26 25 24 23 22 22 22 22 23 24 25 26
50 49 48 46 44 43 42 40 39 38 36 34 32 31 31 32 32 31 32 36 40 40 40 41 42 41 40 38 35 32 30 28 27 25 24 23 22 21 21 22 23 24 24 25
46 46 45 44 42 40 39 38 38 37 35 33 31 29 27 26 27 29 31 34 38 39 38 38 39 39 39 38 36 33 31 28 27 26 25 24 23 23 22 22 22 23 23 23
44 43 43 41 40 39 39 38 36 35 33 31 29 25 22 21 22 24 28 32 36 37 37 36 36 37 37 36 34 32 31 29 27 26 25 24 24 23 22 22 22 22 21 21
41 41 40 39 39 39 37 36 35 34 32 30 28 24 20 17 19 22 26 30 33 35 35 34 33 33 34 34 33 32 31 30 29 28 26 25 24 24 23 23 23 21 20 20
38 38 38 37 37 36 35 35 34 33 32 30 27 22 17 14 15 21 26 29 31 32 32 32 31 30 31 31 31 31 30 30 29 28 27 25 25 24 23 23 23 21 21 20

GEFSNGP_500_meanwind_048.txt.gz
Wind_Speed
13 15 17 18 19 21 23 25 27 27 28 30 33 34 34 35 35 36 36 36 36 36 36 36 36 35 35 35 34 34 34 34 33 32 30 29 27 25 25 24 23 22 21 21
16 18 20 21 21 22 22 24 27 29 31 32 35 36 36 36 37 38 37 37 37 37 36 36 35 35 34 34 33 32 31 31 30 29 27 25 24 23 22 20 19 19 18 17
19 21 22 23 21 24 25 26 30 32 34 35 36 37 37 37 39 39 39 38 38 37 37 36 35 34 34 34 33 32 30 29 28 27 25 22 21 20 18 17 16 15 14 14
23 24 25 20 26 29 30 30 33 35 37 37 38 39 39 40 43 43 42 41 40 39 38 38 36 35 34 33 32 31 29 27 26 25 23 21 19 17 15 14 13 12 11 10
26 26 27 28 32 32 31 34 38 38 39 40 41 42 42 43 44 44 44 44 43 41 40 39 37 36 34 33 32 30 29 26 24 23 22 20 17 15 13 13 12 12 11 9
29 29 30 34 35 34 35 40 42 43 45 46 47 48 47 46 46 46 45 45 44 42 41 39 38 36 35 33 31 30 28 26 23 22 20 18 16 14 13 12 11 10 9 8
35 35 36 40 39 39 41 44 45 47 48 49 50 51 51 50 49 48 47 45 44 43 41 39 37 36 34 33 31 29 27 25 23 21 19 17 15 14 13 12 11 10 8 8
35 37 39 42 43 44 45 48 50 51 52 53 53 53 53 52 51 50 48 46 44 43 41 39 37 36 34 32 31 29 27 25 23 21 19 17 16 15 14 12 11 10 8 7
37 39 42 43 45 47 49 52 54 55 57 57 58 58 57 55 54 51 49 46 44 43 41 39 37 35 33 31 30 29 27 25 23 21 19 18 16 15 14 12 11 10 9 8
39 42 44 47 49 51 53 56 57 59 60 61 61 61 60 58 56 53 50 47 45 43 40 39 37 35 33 31 29 29 28 26 24 22 21 19 17 16 15 14 13 12 10 9
41 44 47 50 53 55 57 58 60 61 62 63 64 63 61 60 58 55 53 49 46 44 41 40 37 34 33 31 30 29 28 27 25 23 22 20 19 17 16 15 13 12 11 10
46 49 52 54 56 59 61 62 64 65 65 65 64 64 63 62 59 57 54 51 49 46 43 42 40 37 35 33 31 30 28 27 26 25 23 21 20 19 17 16 15 13 13 12
51 54 56 59 61 63 65 66 67 67 67 65 65 65 64 62 60 58 55 53 52 49 48 44 42 39 37 33 32 31 29 28 27 26 25 23 21 20 19 18 17 15 14 14
54 57 60 62 64 66 67 68 67 66 66 65 64 63 62 60 58 57 55 53 53 52 49 46 42 39 37 34 33 32 30 29 28 26 26 25 23 21 20 19 18 17 16 16
58 61 63 65 67 68 68 68 66 64 62 60 59 58 57 55 54 52 50 50 49 49 47 46 43 41 38 35 32 31 31 29 28 27 26 26 24 23 22 21 19 18 17 17
62 64 66 67 68 67 66 63 62 60 57 55 54 53 51 49 48 46 44 42 42 41 42 43 42 41 40 38 36 33 31 31 29 28 26 26 25 24 23 22 21 20 19 19
65 67 69 69 68 65 61 59 57 54 52 50 48 47 46 45 43 41 38 36 35 34 35 38 39 38 40 39 37 35 32 31 30 29 27 26 25 24 23 23 22 21 21 20
67 68 68 67 64 61 57 54 50 48 46 45 45 44 43 41 39 37 35 32 31 30 30 33 35 35 37 39 37 35 32 31 30 29 27 25 24 24 24 23 23 23 22 22
67 66 64 62 58 54 51 49 46 45 44 44 42 41 40 39 38 36 33 29 28 27 27 30 33 34 35 38 37 35 33 31 31 29 28 26 25 24 23 22 22 21 21 21
65 62 59 55 51 49 47 45 44 44 43 43 42 40 39 39 38 35 31 27 26 25 24 27 31 33 35 36 37 37 35 33 32 31 28 26 25 24 23 22 21 20 19 18
61 57 53 50 47 44 43 43 44 43 42 42 42 41 40 38 37 34 30 26 24 24 23 25 29 32 34 36 37 38 36 33 32 30 27 25 24 22 21 20 19 18 17 16
56 52 49 46 43 41 40 41 42 42 42 41 41 41 41 39 36 33 29 26 23 23 23 25 27 30 33 36 37 37 35 33 32 29 26 24 22 20 19 18 17 16 16 15
51 48 45 43 40 40 39 40 40 40 41 41 43 42 41 39 36 33 28 25 22 21 22 25 28 30 33 34 35 36 35 34 33 30 26 23 22 20 19 18 17 16 15 14
47 43 42 40 38 38 38 37 38 39 41 42 43 43 41 37 33 30 26 22 20 19 20 25 29 30 32 34 34 35 35 34 33 31 28 25 22 20 19 18 17 15 14 14
43 41 39 37 36 36 36 36 38 40 41 42 43 43 40 36 32 26 21 18 17 16 18 24 28 30 31 32 33 33 34 34 35 33 29 26 22 20 19 17 16 15 15 15
41 39 37 36 36 36 36 38 40 41 41 41 41 41 37 33 28 23 17 14 12 13 18 24 27 29 30 31 31 32 32 32 33 31 28 25 23 20 19 17 16 16 16 15
39 37 35 33 32 33 35 38 39 40 40 41 40 38 33 28 23 17 11 6 7 13 19 24 26 27 29 30 30 31 30 31 30 29 27 25 22 21 19 18 18 18 17 17